Regional Weather Roundup
Issued by NWS Albany, NY

Home | Current Version | Previous Version | Text Only | Print | Product List | Glossary On
Versions: 1 2 3 4 5 6 7 8 9 10 11 12 13 14 15 16 17 18 19 20 21 22 23 24 25 26 27 28 29 30 31 32 33 34 35 36 37 38 39 40 41 42 43 44 45 46 47 48 49 50
000
ASUS41 KALY 270810
RWRALY

NEW YORK STATE HOURLY WEATHER ROUNDUP
NATIONAL WEATHER SERVICE ALBANY NY
300 AM EST THU NOV 27 2014

NOTE: "FAIR" INDICATES FEW OR NO CLOUDS BELOW 12,000 FEET WITH NO
SIGNIFICANT WEATHER AND/OR NO OBSTRUCTIONS TO VISIBILITY.

NYZ032-033-038>043-046>054-057>066-NYZ062>081-270900-
EAST


CITY           SKY/WX    TMP DP  RH WIND       PRES   REMARKS
ALBANY         LGT SNOW  30  27  88 N12       29.92S FOG     WCI  20
GLENS FALLS    LGT SNOW  30  27  88 N7        29.91S FOG     WCI  23
POUGHKEEPSIE   CLOUDY    33  28  81 N9        29.90R WCI  25
MONTGOMERY     CLOUDY    32  30  92 SW3       29.89R
WHITE PLAINS   MOCLDY    33  28  81 NW15G25   29.87R WCI  23
ISLIP          CLOUDY    36  33  89 NW12      29.84R WCI  28
NEW YORK CITY  CLOUDY    37  30  75 N14       29.90R WCI  28
CENTRAL PARK   CLOUDY    36  29  75 NW5       29.92R WCI  32
$$

NYZ005>009-017-018-044>046-055-056-270900-
CENTRAL


CITY           SKY/WX    TMP DP  RH WIND       PRES   REMARKS
FULTON         LGT SNOW  30  26  85 N3        30.01R FOG
SYRACUSE       LGT SNOW  29  26  89 NW10      30.00S FOG     WCI  20
ROME           MIX PCPN  28  26  92 W10       29.99R WCI  19
ELMIRA         LGT SNOW  30  27  88 CALM      29.98S FOG
BINGHAMTON     CLOUDY    36  24  62 NW7       29.90R HAZE    WCI  30
MONTICELLO     MOCLDY    28  27  93 W7        29.87R WCI  21
$$

NYZ026>034-041>043-270900-
NORTH


CITY           SKY/WX    TMP DP  RH WIND       PRES   REMARKS
WATERTOWN      CLOUDY    30  20  66 N8        30.01F WCI  22
FORT DRUM      NOT AVBL
MASSENA        CLOUDY    30  21  69 N7        30.02F WCI  23
SARANAC LAKE   CLOUDY    24  32 100 NE3       29.88F
PLATTSBURGH    FLURRIES  28  25  88 N15       29.98R WCI  16
$$

NYZ001>004-010>016-019>021-270900-
WEST


CITY           SKY/WX    TMP DP  RH WIND       PRES   REMARKS
NIAGARA FALLS  CLOUDY    29  21  72 E6        30.05S WCI  23
BUFFALO        FLURRIES  29  22  75 NE6       30.05R WCI  23
DUNKIRK        CLOUDY    30  26  85 E6        30.04S WCI  24
JAMESTOWN      CLOUDY    27  25  93 NE6       29.97R WCI  20
WELLSVILLE     CLOUDY    26  22  84 N8        29.95R WCI  18
ROCHESTER      LGT SNOW  29  26  89 NW6       30.04S FOG     WCI  23
PENN YAN       LGT SNOW  29  26  89 N5        29.99S FOG     WCI  24
$$

             KEY
       WCI = WIND CHILL INDEX
       VSB = VISIBILITY
       HX  = HEAT INDEX
$$


USA.gov is the U.S. government's official web portal to all federal, state and local government web resources and services.